This is the latest recevied weather packets stored in our database for station/object OE-11140. If no packets are shown the sender has not sent any weather packets the latest 10 day(s).
| Time | Temp. | Humidity | Pressure | Rain* | Wind** | Luminosity | Snow |
|---|---|---|---|---|---|---|---|
| 1788035715 | 17.22° C | 76% | 1016.2 hPa | 0 mm | - | 0 W/m² | - |
| 1788035116 | 17.78° C | 75% | 1016.1 hPa | 0 mm | - | 0 W/m² | - |
| 1788034289 | 17.78° C | 75% | 1016.1 hPa | 0 mm | - | 0 W/m² | - |
| 1788033916 | 17.78° C | 75% | 1016 hPa | 0 mm | - | 0 W/m² | - |
| 1788033316 | 17.78° C | 78% | 1016 hPa | 0 mm | - | 0 W/m² | - |
| 1788032489 | 17.78° C | 77% | 1016 hPa | 0 mm | - | 0 W/m² | - |
| 1788032116 | 17.78° C | 75% | 1015.8 hPa | 0 mm | - | 0 W/m² | - |
| 1788031516 | 18.33° C | 74% | 1015.7 hPa | 0 mm | - | 0 W/m² | - |
| 1788030689 | 17.78° C | 75% | 1015.7 hPa | 0 mm | - | 0 W/m² | - |
| 1788030316 | 18.33° C | 72% | 1015.7 hPa | 0 mm | - | 0 W/m² | - |
| 1788029716 | 18.33° C | 72% | 1015.7 hPa | 0 mm | - | 0 W/m² | - |
| 1788028890 | 18.33° C | 73% | 1015.4 hPa | 0 mm | - | 0 W/m² | - |
| 1788028516 | 18.33° C | 69% | 1015.4 hPa | 0 mm | - | 0 W/m² | - |
| 1788027916 | 18.33° C | 75% | 1015.3 hPa | 0 mm | - | 0 W/m² | - |
| 1788027089 | 18.33° C | 73% | 1015.2 hPa | 0 mm | - | 0 W/m² | - |
| 1788026716 | 18.89° C | 72% | 1014.9 hPa | 0 mm | - | 13 W/m² | - |
| 1788026115 | 19.44° C | 70% | 1014.7 hPa | 0 mm | - | 27 W/m² | - |
| 1788025289 | 20.56° C | 67% | 1014.5 hPa | 0 mm | - | 40 W/m² | - |
| 1788024916 | 20.56° C | 60% | 1014.4 hPa | 0 mm | - | 40 W/m² | - |
| 1788024316 | 21.11° C | 62% | 1014.4 hPa | 0 mm | - | 40 W/m² | - |
| 1788023489 | 21.67° C | 55% | 1014.2 hPa | 0 mm | - | 53 W/m² | - |
| 1788023115 | 21.67° C | 55% | 1014.3 hPa | 0 mm | - | 86 W/m² | - |
| 1788022516 | 21.67° C | 54% | 1014.3 hPa | 0 mm | - | 119 W/m² | - |
| 1788021689 | 21.67° C | 56% | 1014.3 hPa | 0 mm | - | 80 W/m² | - |
| 1788021316 | 21.67° C | 54% | 1014.3 hPa | 0 mm | - | 80 W/m² | - |
* Rain latest hour (hover to see other rain measurements)
** Current wind speed in m/s (hover to see current wind gust speed)